Location: Gro�bocka
(50.8204°N, 11.9702°E)
Time: 07:50:59
(UTC+00:00)

Cosmos 2278 Rocket - Pass Details

Date: 29 October 2020
Orbit: 840 x 847 km, 71.0° (Epoch: 01 December)

Event Time Altitude Azimuth Distance (km) Brightness Sun altitude
Rises 18:18:22 0° 326° (NW) 3,411 5.9 -23.6°
Reaches altitude 10° 18:22:48 10° 358° (N) 2,476 4.7 -24.3°
Maximum altitude 18:24:45 12° 18° (NNE) 2,356 4.4 -24.6°
Enters shadow 18:25:09 12° 23° (NNE) 2,362 4.4 -24.7°
